Starlink 31800

operational
NORAD ID: 59643 Int'l Des: 2024-082 Owner: SPXS Country: US Constellation: starlink
LEOCIRCULAR

关于 Starlink 31800

正在加载描述...

实时位置

正在加载3D地球...

即将过境

高度历史

Altitude vs Time

uPlot chart will show altitude changes over time

两行轨道根数

1 59643U 24082N 25305.95145203 .00001115 00000-0 50016-4 0 9991
2 59643 43.0011 141.3894 0001181 265.2388 94.8328 15.27580111 85371
Epoch: Nov 1, 2025 • Age: 31 hours

当前状态

高度 482.9 km
速度 7.63 km/s
星下点 -0.81°S, 2.85°W
发射日期 May 3, 2024
运行时间 1.5 years
类型 internet

技术详情

分类 Payload
质量 730.00 kg
干质量 700.00 kg
总质量 730.00 kg
长度 0.30 m
直径 4.10 m
跨度 29.00 m
形状 Box + pan
制造商 SPXS
平台类型 Starlink V2M
阶段状态 In Orbit
所有者/国家 SPXS/US

大型星座

Loading constellations...